STARLINK-2064 (47671 NORAD) Tracking and Keplerian Element Data
This shows tracking and keplerian element data for the satellite.
Feedback or suggestion? Click here.
Element | Value |
Catalog | 47671 |
Name | STARLINK-2064 |
Epoch Orbit | 182 |
Epoch Day | 99.91667824 |
Epoch Year | 2021 |
RAAN | 198.8929 |
Inclination | 53.0474 |
Eccentricity | 0.0001796 |
Argument of Perigee | 41.216 |
Mean Anonmoly | 203.4728 |
Mean Motion | 15.73157233 |
Decay Rate | -0.00020084 |
L1 | 1 47671U 21012BD 21099.91667824 -.00020084 00000-0 -13924-3 0 9993 |
L2 | 2 47671 53.0474 198.8929 0001796 41.2160 203.4728 15.73157233 1827 |
Live tracking and technical data element details for STARLINK-2064 (NORAD 47671). STARLINK-2064 can be tracked NOW for your location showing map with azimuth and elevation plus other details from your city location.
Track the satellite on the map from your city or location and see movement details for azimuth, elevation, latitude, longitude, range, height, and movement on the map or in text.
IsCatalogInMostPopularTable: catalog: 47671, numindb: 15
Update: records affected: 1
GetName: 47671 STARLINK-2064
Hit Count: updated at: Sat, 10 Apr 2021 18:37:04 GMT